Weather Roundup
Issued by NWS Chicago, IL

Home | Current Version | Previous Version | Text Only | Print | Product List | Glossary On
Versions: 1 2 3 4 5 6 7 8 9 10 11 12 13 14 15 16 17 18 19 20 21 22 23 24 25 26 27 28 29 30 31 32 33 34 35 36 37 38 39 40 41 42 43 44 45 46 47 48 49 50
000
NZUS59 KLOT 301108
HRRLOT

CHICAGO AREA WEATHER ROUNDUP
NATIONAL WEATHER SERVICE CHICAGO/ROMEOVILLE IL
600 AM CDT SAT APR 30 2016

NOTE: "FAIR" INDICATES FEW OR NO CLOUDS BELOW 12,000 FEET WITH NO
SIGNIFICANT WEATHER AND/OR OBSTRUCTIONS TO VISIBILITY.

* THESE STATIONS ARE NOT UNDER NWS QUALITY CONTROL. THEY ALSO MAY NOT
  REPORT WEATHER SUCH AS PRECIPITATION OR FOG.

ILZ005-006-012>014-019>023-301200-
NORTHEAST ILLINOIS

CITY           SKY/WX    TMP DP  RH WIND       PRES   REMARKS
OHARE          CLOUDY    45  41  86 E8        30.06R
MIDWAY         CLOUDY    48  41  76 E10       30.06R FOG
AURORA         MOCLDY    46  41  82 E13       30.04S
LANSING*       CLOUDY    47  42  84 E7        30.05S
JOLIET*        CLOUDY    48  45  87 E7        30.04S
WAUKEGAN       CLOUDY    43  39  86 NE10      30.07S
DUPAGE AIRPORT CLOUDY    45  40  82 E9        30.05R
WHEELING       MOCLDY    45  40  82 E7        30.07S
KANKAKEE*      CLOUDY    47  44  90 E9        30.03F
MORRIS*        CLOUDY    47  43  87 E7        30.02F
LEWIS AIRPORT* CLOUDY    46  42  85 E8        30.04S
$$

WIZ051-052-058>065-066-070>072-301200-
SOUTHEAST WISCONSIN

CITY           SKY/WX    TMP DP  RH WIND       PRES   REMARKS
MILWAUKEE      MOCLDY    42  37  82 NE9       30.10S
KENOSHA*       MOCLDY    44  38  79 NE10      30.08F
RACINE*        CLOUDY    44  38  79 E12       30.11S
BURLINGTON     MOCLDY    41  36  83 NE8       30.07F
WAUKESHA       CLEAR     39  30  70 NE5       30.11S
WEST BEND      PTCLDY    36  30  80 NE3       30.11F
$$

INZ001>003-010>013-019-020-301200-
NORTHWEST INDIANA

CITY           SKY/WX    TMP DP  RH WIND       PRES   REMARKS
GARY*          MOCLDY    48  48 100 E8        30.06S
MICHIGAN CITY* NOT AVBL
RENSSELAER*    NOT AVBL
VALPARAISO     CLOUDY    45  42  89 E12       30.06R FOG
$$

LMZ740>746-301200-
SOUTHERN LAKE MICHIGAN

STATION/POSITION TIME  SKY/WX   TEMP WIND        PRES    VSBY
                                AIR  DIR/SP/G
                 (UTC)          (F)  (DEG/KT/KT) (MB)    (MI)
HARRISON CRIB    1000            45   70/ 17/ 18   N/A
BURNHAM HARBOR   1100            45   70/  9/ 14   N/A
CALUMET HARBOR   1000            47   70/ 10/ 13 1017.0F
BURNS HARBOR     1002            47   70/  8/ 12 1018.3F
MICHIGAN CITY    1000            46   60/  9/ 10   N/A
$$

ABBREVIATIONS USED IN REMARKS
   TC - TEMPERATURE IN CELSIUS
  WCI - WIND CHILL INDEX
   HX - HEAT INDEX
  VSB - VISIBILITY
$$



USA.gov is the U.S. government's official web portal to all federal, state and local government web resources and services.